User: anonymous
Location: Unspecified
(0.0000°N, 0.0000°E)
Time: 04:14:30
(UTC+02:00)
Language:

Centaur D-1AR AC-41 - Orbit

View from above orbital plane
View from above orbital plane
View from above satellite
View from above satellite

Ground track
Ground track

The orbit data is extracted from the following two-line orbital elements,

1 10976U 78068B   14245.00763285 -.00000111  00000-0  60275-3 0  4531
2 10976 021.4137 195.1938 7158556 352.0586 254.8400 02.22287669293578
Epoch (UTC): 02 September 2014 00:10:59
Eccentricity: 0.7158556
inclination: 21.4137°
perigee height: 669 km
apogee height: 36175 km
right ascension of ascending node: 195.1938°
argument of perigee: 352.0586°
revolutions per day: 2.22287669
mean anomaly at epoch: 254.8400°
orbit number at epoch: 29357

The dashed part of the orbit path shows where the satellite is in the earth's shadow,  

DLR